Tracking 23752 objects as of 23-Oct-2021
HD Live streaming from Space Station
objects crossing your sky now

SL-8 DEB

Track SL-8 DEB now!
10-day predictions


NORAD ID: 39702
Int'l Code: 1991-009DR
Perigee: 1,473.0 km
Apogee: 1,772.6 km
Inclination: 74.2 °
Period: 118.5 minutes
Semi major axis: 7993 km
RCS: 0.0183 m2 (small)
Launch date: February 12, 1991
Source: Commonwealth of Independent States (former USSR) (CIS)
Launch site: PLESETSK MISSILE AND SPACE COMPLEX (PKMTR)

Note: This is SATELLITE DEBRIS
aabbcc
Your satellite tracking list
Your tracking list is empty




NASA's NSSDC Master Catalog

Two Line Element Set (TLE):
1 39702U 91009DR  21293.18727261  .00000164  00000-0  17268-2 0  9998
2 39702  74.2295 104.3613 0187440 119.0721 242.9228 12.14710125250959
Source of the keplerian elements: AFSPC